Theta_e
299 299 300 301 302 303 304 306 306 303 303 305 303 304 305 306 307 307 308 309 308 310 310 312 313 315 316 318 317 317 315 316 318 318 317 317 317 319 320 324 326 323 319 323
299 299 299 300 301 302 305 306 304 303 303 305 304 303 304 306 307 307 306 308 308 307 309 310 313 314 315 319 321 319 316 317 318 319 317 318 318 318 320 322 322 325 324 324
299 299 299 300 301 302 304 301 305 305 304 303 304 304 304 305 306 306 306 308 308 308 308 308 310 311 313 319 320 320 319 318 318 320 319 319 322 319 320 321 322 324 324 323
299 299 300 300 301 301 304 300 303 305 307 305 304 303 305 305 305 306 307 307 307 308 309 307 308 311 318 318 320 321 321 319 319 318 318 319 318 320 321 320 320 323 322 323
299 299 299 300 301 302 304 299 304 304 303 305 305 304 305 305 306 306 307 307 306 307 308 307 308 309 315 319 321 321 320 323 317 319 318 319 319 318 321 321 321 322 322 323
299 300 300 300 300 301 303 303 300 304 305 305 307 306 304 305 305 305 305 306 306 306 306 306 308 310 314 318 320 320 321 322 321 320 318 319 319 319 319 318 320 321 322 321
300 300 301 302 301 301 303 303 303 305 307 304 306 306 305 305 306 305 306 305 305 306 306 310 314 314 315 318 320 319 319 320 321 318 317 323 319 317 317 318 319 319 318 316
298 298 299 299 301 303 303 303 304 305 306 304 304 305 305 306 304 305 306 306 306 305 304 306 307 308 311 313 317 321 318 320 319 317 319 318 318 318 318 319 318 317 316 316
298 298 298 299 299 299 301 304 303 304 306 306 305 304 305 305 305 305 305 305 305 306 305 306 307 308 313 317 319 318 321 319 318 319 321 320 317 317 318 318 318 316 316 317
299 299 299 299 299 300 298 303 301 298 302 303 304 305 305 304 305 305 305 305 305 305 304 304 307 308 312 313 314 319 319 319 320 319 319 317 317 317 317 320 318 317 317 318
301 301 300 299 300 300 298 301 300 299 298 300 303 306 305 305 305 305 304 306 306 305 306 306 306 304 312 312 314 313 315 319 319 318 321 320 318 320 319 318 316 316 318 317
301 301 301 300 300 300 300 299 299 300 301 301 300 303 306 305 305 306 304 306 306 307 306 306 306 306 302 309 312 312 314 314 317 318 318 316 317 318 320 318 318 317 317 317
300 300 301 301 300 301 300 299 298 299 299 300 300 302 306 307 308 307 307 307 308 308 305 307 309 309 305 307 308 311 312 312 315 317 317 317 317 316 319 317 317 317 317 316
300 300 301 300 301 300 300 299 299 299 300 301 304 301 301 308 308 309 309 309 310 310 308 307 305 306 310 305 311 309 311 316 317 316 315 315 314 313 314 315 316 318 317 316
301 301 301 300 301 300 300 300 299 301 302 302 303 304 306 307 305 307 308 309 310 309 309 306 306 307 309 307 311 313 312 315 316 315 314 315 314 312 313 315 317 316 317 315
301 301 301 302 301 300 300 301 300 300 303 306 305 303 306 306 305 305 305 307 308 309 309 308 308 310 312 310 310 309 308 309 311 313 312 314 316 316 316 317 314 313 314 314
301 301 301 301 301 300 300 301 301 300 302 303 304 305 306 307 306 305 305 305 307 308 308 308 310 310 312 307 311 306 305 304 308 308 311 314 311 311 309 310 310 310 309 308
301 301 301 301 300 300 302 302 300 301 299 304 302 305 304 304 305 306 305 306 306 307 307 305 308 310 311 310 300 300 301 302 305 305 305 307 308 308 307 307 307 303 299 296
301 300 299 301 300 301 302 300 300 300 303 302 299 303 307 301 302 301 304 303 304 303 304 303 307 303 300 297 297 298 297 299 301 304 301 302 303 301 299 299 298 296 293 290
298 299 300 297 302 302 302 302 302 301 301 301 298 298 306 303 297 304 304 298 300 308 304 305 299 297 297 294 294 293 294 296 298 302 301 300 300 298 295 293 291 290 289 287
301 301 301 301 302 302 300 300 299 300 300 299 299 297 301 299 299 302 302 305 305 309 307 304 299 295 293 292 291 291 292 293 294 295 294 294 294 293 291 289 287 286 285 284
300 301 300 300 300 300 298 299 298 299 305 301 298 300 301 300 299 299 303 307 305 310 303 298 293 293 291 290 290 289 289 289 289 288 288 288 288 287 286 285 284 283 283 282
303 300 299 299 295 294 295 300 299 300 298 297 299 304 301 300 299 299 303 307 308 301 297 292 291 290 289 288 288 287 287 287 286 285 285 284 283 283 283 283 282 281 281 281
293 294 290 290 290 292 291 290 289 292 295 295 297 301 302 299 297 301 305 298 297 295 289 290 289 289 288 287 286 285 285 284 284 284 283 283 282 282 282 282 281 281 280 280
289 289 288 287 288 286 288 290 288 292 293 294 299 300 300 298 298 295 297 293 291 290 288 286 286 285 286 285 285 285 284 283 283 282 282 282 281 281 281 280 280 280 280 279
286 286 284 284 284 286 286 289 289 290 292 294 296 300 298 294 291 290 289 290 288 287 285 285 284 284 283 283 283 284 283 283 283 282 282 282 281 280 280 279 279 279 279 278
286 284 281 280 280 283 285 286 287 289 293 293 292 289 291 291 290 288 287 285 285 284 283 282 282 282 282 282 281 281 280 280 279 280 280 280 280 280 279 279 278 278 277 277
Wind_Speed
33 30 29 27 26 25 22 6 5 17 29 7 5 16 13 8 14 10 12 4 6 5 2 4 2 4 4 9 7 7 12 11 15 17 9 9 4 8 9 5 5 3 4 8
35 33 32 30 29 28 12 3 3 17 24 11 16 11 16 8 4 6 5 5 10 6 3 5 4 4 9 7 7 6 7 6 2 7 8 2 5 9 11 5 4 8 6 5
37 36 35 34 33 31 28 4 5 4 10 7 10 14 19 18 8 17 13 9 7 6 9 5 8 11 8 9 5 10 6 7 15 15 5 4 4 10 13 9 4 5 7 6
37 37 37 36 35 34 29 5 5 5 8 17 14 12 9 23 18 13 4 8 19 6 6 9 12 6 7 5 6 7 5 8 6 13 17 16 18 11 8 9 7 9 8 11
39 38 38 38 38 36 27 5 5 5 2 12 22 23 22 20 17 10 19 19 9 15 18 17 6 9 6 5 5 5 8 5 4 8 13 9 12 16 15 8 4 8 7 9
39 38 40 41 40 39 16 14 8 4 10 11 15 29 20 15 17 11 18 14 17 17 10 6 7 9 8 6 3 3 5 5 9 15 8 12 12 16 7 6 6 6 6 9
35 34 38 42 38 49 33 11 6 5 6 17 24 9 21 20 19 22 13 15 16 4 5 3 2 3 5 6 5 5 6 1 2 4 3 11 16 12 7 13 11 9 6 6
31 32 31 31 38 43 36 20 8 6 13 13 18 19 12 19 19 19 18 18 11 7 4 2 3 4 5 5 5 9 6 5 3 2 6 4 9 5 7 7 7 7 7 3
37 37 37 37 39 39 35 27 23 4 8 19 13 13 16 11 13 15 21 15 3 3 1 3 8 5 5 3 4 4 12 8 7 6 7 16 3 6 3 3 6 6 5 2
40 41 41 41 41 41 36 22 34 5 2 2 12 14 16 11 9 3 4 7 9 8 3 2 4 8 7 5 5 2 1 2 9 9 5 8 5 6 8 8 6 3 3 2
41 44 43 43 42 41 35 11 35 16 2 2 6 10 7 10 14 8 4 3 3 2 7 4 4 4 6 3 5 7 5 3 3 5 5 7 2 5 4 2 6 6 6 4
37 39 46 45 44 43 39 6 31 18 3 2 6 6 16 28 26 13 5 6 6 6 3 4 2 2 1 6 6 3 5 7 5 6 5 9 4 4 4 4 3 3 4 10
34 36 39 49 45 44 42 17 25 12 3 1 2 9 14 15 19 20 6 2 4 3 4 4 3 3 4 3 5 7 5 7 4 6 14 17 12 5 7 5 5 4 2 7
38 39 39 42 54 44 43 23 25 15 4 1 4 14 17 19 15 12 6 4 2 4 3 2 3 3 3 3 3 4 5 8 11 7 6 5 8 7 6 7 10 4 5 4
30 39 38 39 43 50 35 25 32 17 4 4 2 1 9 14 15 14 10 5 3 3 1 1 3 2 2 2 3 2 5 5 4 6 9 6 7 9 12 7 5 6 3 4
32 37 35 40 48 47 30 4 22 30 9 1 3 4 3 8 14 8 5 4 3 3 4 3 2 2 3 2 5 0 9 11 13 5 10 5 5 5 5 3 4 7 8 6
36 38 37 45 48 36 8 5 11 35 16 1 3 3 3 10 6 2 2 2 2 3 3 4 4 3 4 3 4 12 12 15 12 15 12 6 11 6 9 7 6 9 10 12
39 43 42 48 38 28 2 4 28 33 6 4 3 1 3 3 3 2 2 2 1 1 3 1 3 2 3 1 10 13 12 13 7 13 11 7 6 10 12 10 8 12 11 11
46 46 46 26 9 2 2 25 35 28 7 0 2 3 2 2 1 2 1 2 2 0 2 2 3 3 5 7 11 10 12 10 11 8 9 13 13 12 12 11 12 11 10 12
34 10 3 4 9 35 21 7 3 4 2 1 2 1 2 3 0 2 2 2 2 3 4 3 3 3 4 8 9 9 11 11 11 8 9 11 12 11 12 12 10 11 11 11
5 3 3 6 11 5 2 3 3 1 3 2 1 3 3 3 3 2 2 2 3 4 3 4 3 2 5 8 10 10 9 8 10 9 9 9 9 8 8 11 11 11 14 14
10 14 9 3 3 3 5 3 2 4 2 3 2 1 3 1 2 3 2 2 1 3 2 4 3 3 7 9 10 11 11 11 13 13 13 13 12 12 13 11 12 17 19 19
4 5 4 3 4 9 5 3 3 3 4 4 3 3 2 2 3 2 1 2 1 3 4 3 3 6 7 7 7 10 10 13 13 16 20 21 20 23 21 15 20 22 24 22
4 4 7 4 4 4 3 1 2 2 2 4 2 2 2 1 3 1 3 3 4 4 4 3 3 6 7 7 8 10 13 14 14 13 16 18 20 21 24 23 22 25 24 24
5 5 5 5 3 2 2 2 2 2 3 2 1 3 3 4 3 4 3 4 4 4 2 2 3 7 8 10 10 10 12 12 12 16 15 18 22 23 24 25 26 27 25 26
4 6 4 3 3 4 4 4 2 3 4 1 1 3 3 4 3 5 5 3 3 2 2 3 5 10 10 11 10 10 13 15 17 20 21 22 22 22 23 26 26 26 26 26
5 3 3 2 1 3 3 3 4 3 2 2 3 5 5 3 3 3 4 3 4 5 5 6 8 8 9 9 12 16 18 20 22 23 23 22 21 22 24 20 23 26 27 27
Wind_Direction
265 263 261 255 244 239 225 188 204 178 167 191 214 225 206 244 270 261 251 296 298 276 281 276 238 253 312 31 257 203 201 205 236 244 253 268 229 226 171 174 214 156 160 255
258 257 253 250 240 229 196 193 149 175 167 206 219 220 213 243 225 245 250 259 201 228 42 342 256 295 307 6 8 346 202 223 206 251 266 311 197 224 200 155 127 193 175 251
256 252 249 244 238 231 209 145 168 173 204 236 212 214 224 222 222 247 256 283 324 300 286 210 271 304 302 343 8 332 282 192 211 228 208 201 216 209 204 178 152 190 220 210
256 253 245 237 232 227 206 179 216 187 195 211 214 198 211 215 224 220 237 254 235 257 282 255 249 262 304 314 28 356 6 255 219 225 225 240 264 263 211 208 195 196 219 220
253 246 239 234 228 220 212 176 185 184 136 189 207 221 221 220 207 223 226 239 244 211 232 228 343 344 321 256 358 18 7 313 219 224 218 202 235 244 250 243 201 232 204 216
247 241 236 232 226 211 212 199 214 180 197 189 196 218 218 219 214 241 239 244 243 239 278 278 280 253 259 248 166 89 352 15 352 249 229 232 259 233 224 229 190 183 213 228
242 237 234 223 226 213 210 199 145 190 205 204 214 168 208 213 219 217 237 233 247 258 243 262 306 283 269 229 227 166 161 157 239 268 132 223 255 190 211 228 229 204 188 244
236 233 231 226 219 210 211 209 176 197 224 216 218 209 199 208 224 236 240 248 248 290 233 149 274 317 323 261 230 181 157 119 308 263 235 270 253 236 160 182 250 206 188 217
238 235 230 224 221 223 220 212 197 195 220 223 202 203 199 194 208 230 243 252 277 303 199 178 206 204 195 236 298 224 193 206 170 264 272 234 242 222 251 107 252 228 182 144
237 232 228 225 222 218 220 206 185 125 184 238 184 198 198 187 182 223 180 218 251 179 194 197 204 223 171 228 189 55 92 167 197 221 265 283 247 275 169 218 257 263 136 0
235 228 223 220 216 210 209 206 181 174 165 283 242 193 166 182 202 196 195 137 251 137 188 175 218 185 197 184 172 163 166 174 175 218 211 269 255 14 185 264 316 316 337 261
235 229 220 215 210 203 196 162 182 179 157 213 339 296 280 197 189 200 184 188 178 196 157 210 143 235 139 166 237 90 230 193 175 151 276 260 294 176 219 201 193 325 340 312
228 221 214 205 204 196 191 165 167 161 102 312 251 254 275 236 192 197 171 240 183 162 171 179 184 219 129 184 233 205 234 186 201 166 251 249 244 185 217 213 193 230 226 305
220 214 209 204 198 197 182 162 167 139 111 165 289 199 253 231 165 162 136 124 113 133 112 204 144 168 177 203 208 192 225 174 211 235 257 276 255 252 204 200 235 239 206 225
205 197 191 193 194 177 166 160 170 167 150 174 210 162 221 175 170 171 171 138 151 106 323 214 203 199 130 197 89 236 312 290 194 222 223 201 233 240 232 231 222 263 168 340
166 166 169 173 159 156 138 117 185 190 208 212 158 236 174 169 175 163 168 165 147 155 160 219 239 259 148 188 208 82 12 342 18 312 312 283 294 4 5 113 69 32 337 356
154 160 161 153 156 148 137 171 176 187 172 260 139 156 145 157 151 163 100 125 166 123 192 200 171 226 191 136 253 3 351 346 343 346 350 19 17 347 6 15 33 51 34 16
132 137 144 144 141 145 55 100 155 157 196 241 116 128 83 5 119 137 149 113 179 251 167 63 163 324 95 307 360 343 347 344 350 350 15 357 357 33 18 4 26 51 40 24
118 123 121 119 112 101 144 147 161 192 240 52 84 121 149 7 60 118 91 115 124 79 132 190 111 48 51 351 332 344 340 341 339 333 22 22 38 31 25 29 30 55 46 49
114 113 76 140 158 123 117 137 144 162 254 49 101 94 94 94 20 55 93 61 191 168 220 120 66 85 96 5 355 343 335 338 348 8 15 11 25 31 28 33 40 59 63 64
46 52 48 74 103 118 109 109 99 329 49 23 147 125 129 329 108 153 183 175 195 167 189 113 84 73 13 359 10 353 347 7 27 45 56 55 48 47 48 45 46 54 66 72
97 109 96 76 33 57 79 60 27 45 76 19 59 99 118 111 107 109 189 171 278 162 57 72 70 16 11 12 15 14 17 34 52 51 56 61 62 69 70 59 61 63 67 70
73 62 58 16 347 45 40 40 17 41 3 356 349 63 101 56 53 61 120 175 66 80 48 74 50 14 35 31 32 38 34 46 58 59 62 66 64 61 66 66 63 69 68 67
56 48 36 61 17 51 27 328 264 288 348 345 333 60 57 32 56 32 84 39 33 60 60 64 11 33 41 44 46 52 48 46 52 55 60 66 67 66 65 66 70 74 71 70
51 33 42 46 346 330 292 286 352 352 324 333 45 67 47 24 48 13 51 57 65 49 48 64 17 32 46 55 53 56 60 58 59 62 63 64 67 67 65 61 66 70 74 75
58 42 24 328 36 336 344 358 335 338 322 289 355 78 73 54 36 44 21 73 59 65 51 43 55 56 52 49 44 50 69 76 74 69 68 69 68 69 70 65 62 65 71 71
43 17 6 358 352 298 309 334 322 295 326 51 51 52 36 75 57 59 28 50 93 97 83 65 58 61 62 61 59 57 58 58 57 58 57 56 61 70 68 65 61 65 66 69